Wind_Speed
38 41 43 46 49 52 56 59 63 67 70 73 77 82 86 90 93 90 85 80 78 78 78 78 75 73 74 75 75 74 73 73 72 68 66 65 65 64 63 61 63 73 86
39 42 45 47 51 54 57 61 64 68 71 75 79 82 87 90 90 86 81 78 78 78 78 76 74 75 76 73 70 68 67 67 71 73 71 69 68 69 65 62 61 64 76
40 43 45 48 52 55 58 62 66 69 72 76 80 83 88 90 87 82 78 77 78 79 77 75 76 77 73 68 64 61 59 58 60 66 71 73 73 72 68 66 63 61 65
41 43 46 49 53 55 59 63 67 70 73 76 80 84 87 87 84 79 77 77 78 77 75 76 77 75 68 62 57 53 50 48 48 53 61 69 72 73 70 69 66 62 61
41 44 47 50 53 56 59 64 68 70 73 77 80 84 86 85 81 77 76 76 77 75 74 76 76 70 62 57 54 49 43 38 36 38 46 57 66 70 70 68 67 64 61
42 45 48 51 53 56 60 64 68 71 73 77 81 84 85 82 79 76 75 75 75 73 74 76 73 64 57 53 50 46 39 32 26 25 30 40 53 63 67 67 65 64 63
45 47 49 51 53 56 60 65 68 70 73 77 81 84 83 80 77 74 74 74 73 72 73 75 70 59 52 47 44 40 36 31 23 16 15 25 38 50 58 62 63 62 62
49 50 51 53 54 57 61 65 68 70 73 77 80 83 82 79 75 73 73 73 72 71 73 75 68 56 48 42 37 33 32 30 26 18 8 11 25 38 48 55 58 59 60
54 55 55 55 55 58 61 65 68 70 73 76 80 82 80 77 74 72 72 72 71 70 73 74 68 54 45 38 33 28 26 25 23 19 11 3 14 27 38 46 52 55 57
58 59 58 57 57 59 62 66 68 69 72 76 79 81 79 75 72 71 71 71 70 69 72 74 69 55 45 36 30 25 20 18 16 13 9 4 7 18 29 38 45 50 53
60 62 62 61 59 60 63 66 68 69 72 76 79 79 78 74 71 70 69 69 69 68 70 73 70 57 46 37 30 25 20 16 12 9 7 5 7 13 22 30 37 44 49
62 64 66 65 63 62 64 66 68 69 72 75 78 78 77 73 70 68 68 68 68 67 69 72 71 61 49 40 32 26 22 19 15 13 10 9 10 13 18 25 31 37 43
64 66 68 68 66 64 65 67 68 69 72 75 77 78 76 72 69 67 67 67 67 66 68 70 71 65 54 44 35 29 24 21 19 16 14 13 12 14 17 21 26 32 37
64 68 70 71 69 66 66 67 68 69 71 74 77 77 75 71 68 66 66 66 66 65 66 69 70 68 60 50 40 33 27 23 20 18 16 15 14 15 17 20 23 28 32
64 68 71 73 72 69 67 68 68 68 70 73 76 76 75 71 67 65 64 64 65 65 65 67 69 68 64 56 47 37 30 25 21 18 15 13 13 14 16 18 21 24 29
65 69 72 73 74 72 68 68 68 68 69 72 75 75 74 71 67 64 63 63 64 64 65 66 68 68 65 59 50 41 33 27 22 17 13 10 9 11 13 16 18 21 25
66 69 72 74 76 74 70 68 68 68 69 71 73 74 74 71 66 63 62 62 62 63 63 64 66 67 65 60 52 44 36 29 23 18 13 8 5 5 8 12 15 18 21
65 68 71 74 76 76 72 69 68 68 68 70 72 73 73 70 66 63 61 61 61 61 62 63 64 66 65 61 53 46 39 31 25 19 15 10 5 1 3 7 11 15 19
64 68 71 73 76 77 75 70 68 68 68 69 71 72 72 69 66 62 60 60 60 60 60 61 62 64 65 62 55 48 41 34 27 21 17 13 10 6 4 3 6 10 15
63 67 70 73 75 77 76 71 68 67 67 68 69 71 71 69 65 62 60 59 59 59 59 60 60 61 62 62 57 50 43 35 28 23 20 16 14 11 8 6 4 6 10
62 66 70 71 74 76 76 72 68 67 66 66 68 70 69 68 65 62 60 58 57 58 58 58 58 59 59 60 59 52 43 35 29 24 22 19 17 15 13 10 7 5 6
60 64 68 70 73 75 75 72 68 66 65 65 66 68 69 67 65 61 59 57 56 55 55 55 55 55 56 57 58 54 44 36 29 24 21 19 18 17 15 13 11 8 6
58 62 67 69 71 73 74 72 69 66 64 64 64 66 68 67 65 61 58 56 54 53 52 52 52 52 53 53 54 54 47 37 29 24 21 19 18 17 16 14 13 11 9
56 60 65 67 69 71 72 72 69 65 63 62 63 64 66 67 65 61 58 55 53 51 50 50 50 50 50 51 51 51 50 42 31 24 20 18 17 16 16 15 14 12 11
54 58 63 66 67 69 70 71 69 65 62 61 61 62 64 65 65 63 58 55 53 51 50 49 48 47 48 48 49 49 48 46 38 27 20 17 15 15 15 15 14 13 12
53 56 61 64 65 67 68 69 68 64 62 60 59 60 62 63 64 63 60 55 52 51 50 48 47 46 46 46 46 46 45 45 43 35 23 17 14 12 12 12 13 13 13
Wind_Direction
323 323 323 323 323 323 323 323 324 324 325 326 326 326 324 323 322 322 322 322 322 321 319 317 314 311 307 301 295 288 280 272 266 260 253 247 243 242 241 240 239 235 228
325 325 326 325 325 324 324 325 325 326 327 328 328 327 326 325 325 325 325 325 325 324 323 321 319 315 312 307 301 294 286 276 266 258 251 244 241 239 238 238 238 237 232
327 327 327 327 326 326 326 326 327 329 330 330 330 329 328 327 327 328 328 328 328 327 327 326 324 321 318 313 309 302 293 282 270 259 250 242 238 237 236 236 236 237 235
331 330 329 328 327 327 327 328 329 331 332 332 331 332 331 330 330 331 331 331 331 331 331 331 329 327 324 322 320 315 305 292 277 262 251 242 236 233 232 234 234 235 235
335 333 331 330 329 329 329 330 332 333 334 334 334 334 333 332 333 334 334 334 334 335 335 336 334 332 331 330 330 328 321 308 290 269 252 242 235 231 230 230 232 233 234
340 337 335 333 332 332 332 333 334 335 335 336 336 335 335 335 335 336 336 337 338 339 340 340 339 337 336 337 338 340 339 331 312 285 257 241 233 229 227 227 228 231 233
347 342 339 337 336 335 335 335 337 337 337 338 338 338 337 337 338 338 339 341 342 342 344 345 344 341 340 341 343 349 357 358 349 324 273 239 228 225 225 224 224 226 230
354 349 344 341 339 338 337 338 338 339 339 340 340 340 340 339 340 340 342 344 345 346 348 349 349 346 344 344 346 355 7 12 13 8 340 243 224 221 221 222 221 222 225
359 354 349 345 342 340 340 340 340 341 341 342 342 342 342 342 342 343 344 346 348 349 351 353 353 350 347 344 346 354 8 16 21 21 17 306 225 219 218 219 220 220 221
1 357 353 348 344 343 342 342 342 343 343 343 344 344 344 344 344 345 347 349 350 352 354 356 356 354 350 346 344 347 353 2 9 12 10 339 234 222 219 219 219 219 220
0 358 355 351 347 344 343 343 344 344 345 345 346 346 346 345 346 348 349 351 353 354 356 358 359 358 354 348 342 337 334 334 334 331 325 298 250 229 222 219 219 219 219
359 358 356 353 349 346 345 345 345 346 347 347 347 348 348 347 348 350 351 353 355 356 358 360 1 1 359 354 345 336 327 319 311 302 291 274 252 235 226 222 220 219 219
358 357 356 355 351 348 346 346 347 347 348 348 349 350 349 349 350 352 353 355 357 358 360 1 3 3 2 359 352 344 332 319 308 296 284 271 256 240 230 225 221 220 218
357 357 356 355 352 349 347 347 348 348 349 350 350 351 351 351 351 353 355 357 358 360 1 3 4 4 4 3 360 351 343 331 317 303 290 275 260 245 235 228 222 220 218
355 356 355 355 353 350 348 348 349 349 350 351 351 352 353 352 353 354 356 358 359 1 3 4 6 6 5 4 4 359 352 344 334 321 304 283 264 249 237 228 221 218 216
353 354 354 354 353 351 348 348 349 350 350 351 352 353 354 354 354 355 357 359 1 2 4 6 7 8 7 6 5 4 2 357 350 341 327 304 274 250 235 224 218 215 214
352 352 353 353 353 351 349 348 349 350 351 352 353 354 355 355 355 355 357 360 2 3 4 6 8 9 10 8 8 8 8 6 3 359 354 342 305 256 228 217 213 210 208
350 351 351 351 352 351 349 348 349 350 351 352 353 354 355 356 356 356 357 360 2 4 5 7 9 10 11 11 11 12 13 13 14 15 16 19 18 6 199 203 205 205 203
348 349 350 350 350 351 350 348 349 350 351 352 353 355 356 357 357 357 357 360 2 4 6 8 10 11 12 13 13 15 17 18 21 25 30 37 44 55 81 146 182 192 194
345 347 348 348 349 349 349 348 348 350 351 352 353 355 356 357 357 357 358 359 1 4 6 8 10 12 13 14 15 17 19 21 26 32 38 44 50 56 63 79 122 165 182
342 344 346 347 347 348 349 348 347 349 351 353 353 354 356 357 358 358 359 360 1 3 6 8 9 12 13 15 17 19 20 23 29 36 42 48 53 56 60 64 76 108 158
338 341 343 345 346 347 348 348 347 348 351 352 353 354 356 357 358 358 359 1 2 3 5 6 8 11 13 15 18 20 21 24 30 37 44 49 55 57 59 62 65 74 100
335 338 341 342 344 345 346 347 347 347 349 352 353 354 355 357 358 359 360 1 2 3 4 5 8 11 13 16 19 21 22 24 29 36 43 50 56 59 60 63 68 73 81
331 335 338 340 342 343 345 346 346 346 348 351 352 354 355 356 358 360 0 1 2 3 3 5 7 10 12 15 18 21 23 24 27 32 40 48 55 61 65 69 74 79 87
328 332 335 337 339 341 343 345 345 345 347 349 351 353 354 355 357 359 0 1 1 3 4 5 7 9 12 15 17 20 22 24 26 28 33 42 51 60 67 73 81 88 96
324 328 332 335 337 339 341 343 345 345 346 348 350 352 353 354 356 358 359 0 1 2 4 5 6 8 11 14 16 18 20 23 25 26 28 33 43 56 67 76 85 94 102
Height
5819 5813 5805 5796 5787 5778 5768 5757 5745 5733 5719 5704 5687 5669 5650 5628 5606 5584 5565 5547 5531 5514 5498 5480 5464 5448 5433 5419 5406 5396 5391 5388 5387 5389 5394 5400 5405 5410 5414 5420 5426 5433 5444
5814 5806 5798 5789 5779 5769 5759 5747 5735 5721 5707 5691 5674 5655 5634 5612 5590 5569 5549 5531 5515 5498 5480 5461 5444 5426 5409 5392 5377 5365 5357 5354 5353 5356 5364 5374 5383 5385 5394 5402 5407 5413 5423
5807 5799 5790 5781 5771 5761 5750 5738 5725 5711 5695 5678 5660 5640 5618 5595 5574 5554 5536 5518 5500 5481 5462 5443 5424 5404 5384 5368 5353 5339 5329 5323 5322 5323 5331 5343 5354 5363 5375 5381 5389 5396 5405
5801 5793 5784 5774 5763 5753 5741 5729 5715 5700 5684 5666 5647 5627 5605 5583 5562 5542 5523 5505 5486 5467 5447 5428 5407 5385 5365 5348 5334 5319 5307 5299 5296 5296 5301 5312 5326 5340 5353 5361 5371 5380 5388
5795 5786 5777 5766 5756 5744 5732 5719 5705 5689 5673 5655 5635 5614 5592 5570 5549 5531 5512 5494 5474 5454 5434 5414 5392 5370 5351 5335 5320 5306 5293 5282 5276 5276 5279 5288 5302 5316 5331 5343 5352 5363 5372
5790 5780 5770 5759 5748 5736 5723 5709 5694 5678 5662 5643 5623 5602 5580 5559 5539 5521 5503 5484 5464 5444 5424 5403 5380 5359 5342 5327 5312 5299 5285 5274 5267 5264 5265 5272 5284 5297 5311 5326 5336 5347 5357
5784 5774 5763 5751 5739 5727 5714 5700 5684 5668 5651 5632 5612 5591 5570 5549 5530 5512 5494 5475 5456 5436 5417 5395 5373 5352 5336 5322 5309 5297 5285 5273 5265 5261 5260 5264 5272 5283 5296 5310 5321 5333 5342
5779 5768 5756 5744 5731 5719 5705 5691 5675 5659 5641 5622 5602 5582 5561 5540 5522 5504 5486 5467 5448 5428 5409 5387 5366 5347 5332 5320 5309 5298 5287 5278 5270 5265 5263 5264 5269 5276 5286 5297 5309 5320 5330
5773 5761 5749 5736 5724 5711 5697 5683 5667 5651 5633 5614 5594 5574 5553 5533 5515 5497 5479 5460 5441 5422 5403 5382 5362 5343 5330 5318 5309 5300 5291 5283 5277 5272 5269 5268 5270 5274 5280 5288 5298 5309 5319
5768 5756 5743 5730 5717 5704 5690 5675 5659 5643 5625 5607 5587 5567 5546 5526 5509 5491 5473 5455 5437 5418 5400 5380 5360 5341 5328 5317 5308 5300 5293 5287 5281 5277 5273 5271 5271 5273 5277 5283 5291 5299 5309
5762 5750 5737 5724 5710 5697 5683 5669 5653 5636 5618 5600 5580 5560 5540 5521 5504 5486 5469 5452 5434 5416 5398 5378 5359 5341 5327 5315 5306 5299 5293 5287 5282 5278 5275 5273 5272 5273 5275 5279 5285 5292 5300
5758 5745 5732 5718 5704 5691 5677 5662 5646 5629 5612 5594 5575 5555 5535 5517 5500 5483 5466 5449 5431 5414 5396 5378 5359 5341 5326 5314 5304 5297 5291 5285 5281 5277 5274 5272 5271 5271 5273 5276 5281 5287 5294
5753 5740 5727 5713 5699 5685 5671 5656 5640 5624 5607 5589 5570 5551 5532 5514 5497 5481 5464 5447 5430 5413 5396 5378 5360 5342 5327 5314 5303 5294 5288 5282 5277 5274 5271 5269 5269 5269 5271 5273 5277 5282 5288
5749 5736 5723 5709 5694 5680 5665 5651 5635 5619 5602 5585 5566 5547 5529 5511 5495 5479 5463 5447 5430 5413 5397 5379 5361 5343 5327 5313 5302 5292 5285 5278 5273 5270 5267 5266 5265 5266 5268 5270 5273 5278 5283
5745 5732 5718 5705 5690 5675 5661 5646 5631 5615 5599 5581 5563 5545 5527 5509 5493 5478 5462 5447 5430 5414 5398 5381 5363 5345 5328 5313 5301 5291 5283 5276 5270 5266 5263 5262 5262 5262 5264 5266 5270 5274 5279
5741 5728 5715 5701 5686 5671 5657 5642 5627 5612 5595 5578 5561 5543 5525 5508 5492 5477 5463 5447 5431 5415 5399 5383 5366 5349 5331 5315 5302 5291 5283 5275 5269 5264 5261 5259 5259 5259 5261 5263 5266 5270 5275
5737 5724 5711 5697 5683 5668 5653 5639 5624 5608 5592 5576 5559 5541 5524 5507 5492 5477 5463 5448 5433 5418 5402 5386 5370 5354 5337 5321 5306 5295 5285 5277 5270 5265 5261 5259 5259 5259 5260 5262 5265 5269 5273
5733 5720 5707 5694 5680 5665 5650 5635 5621 5605 5590 5574 5557 5540 5523 5507 5491 5477 5464 5450 5435 5421 5406 5390 5375 5359 5343 5327 5312 5300 5289 5281 5274 5268 5264 5262 5261 5260 5261 5263 5265 5268 5272
5729 5717 5704 5691 5676 5662 5647 5632 5618 5603 5588 5573 5557 5540 5523 5507 5492 5478 5464 5451 5438 5424 5409 5394 5379 5364 5349 5333 5319 5306 5295 5286 5279 5274 5270 5267 5265 5265 5265 5266 5267 5270 5273
5724 5712 5700 5687 5673 5659 5645 5630 5616 5601 5587 5572 5556 5539 5523 5508 5493 5479 5465 5451 5438 5425 5411 5397 5383 5369 5356 5341 5326 5313 5302 5293 5286 5281 5277 5274 5272 5271 5270 5270 5271 5273 5275
5719 5708 5696 5684 5671 5657 5643 5628 5614 5600 5586 5571 5555 5540 5524 5508 5494 5480 5467 5453 5440 5426 5413 5400 5388 5376 5363 5349 5334 5321 5311 5302 5295 5290 5285 5282 5280 5278 5277 5276 5276 5277 5278
5713 5703 5692 5680 5668 5654 5641 5626 5612 5598 5584 5570 5556 5541 5525 5510 5495 5481 5468 5455 5442 5430 5418 5406 5394 5382 5370 5357 5343 5330 5319 5311 5304 5298 5294 5291 5288 5286 5284 5283 5282 5282 5283
5708 5698 5688 5676 5664 5651 5638 5624 5610 5596 5583 5570 5556 5542 5527 5512 5498 5484 5471 5458 5446 5434 5423 5412 5400 5388 5377 5365 5352 5340 5329 5320 5312 5307 5303 5299 5297 5294 5292 5291 5290 5289 5289
5702 5693 5683 5672 5661 5648 5635 5622 5608 5594 5581 5569 5556 5542 5528 5513 5499 5486 5473 5461 5450 5439 5427 5416 5405 5393 5382 5371 5360 5349 5338 5328 5321 5315 5311 5308 5305 5302 5300 5299 5298 5297 5297
5696 5687 5678 5668 5657 5645 5632 5619 5606 5592 5580 5567 5555 5541 5528 5514 5500 5487 5475 5463 5451 5440 5430 5419 5408 5397 5387 5376 5365 5356 5346 5337 5328 5322 5318 5315 5312 5310 5308 5307 5306 5305 5305
5689 5681 5672 5663 5652 5641 5629 5616 5603 5590 5578 5566 5554 5541 5527 5513 5499 5486 5474 5463 5453 5441 5431 5420 5410 5400 5390 5380 5372 5363 5354 5345 5337 5329 5324 5321 5318 5316 5315 5314 5313 5312 5312